TimeEDT,TemperatureF,Dew PointF,Humidity,Sea Level PressureIn,VisibilityMPH,Wind Direction,Wind SpeedMPH,Gust SpeedMPH,PrecipitationIn,Events,Conditions,WindDirDegrees,DateUTC
12:15 AM,42.8,36.9,80,30.07,10.0,Calm,Calm,-,N/A,,Overcast,0,2012-10-08 04:15:00
12:35 AM,43.2,37.6,81,30.08,10.0,Calm,Calm,-,N/A,,Overcast,0,2012-10-08 04:35:00
12:55 AM,43.0,37.8,82,30.08,10.0,Calm,Calm,-,N/A,,Light Drizzle,0,2012-10-08 04:55:00
1:15 AM,43.0,37.9,82,30.09,10.0,Calm,Calm,-,N/A,,Drizzle,0,2012-10-08 05:15:00
1:35 AM,43.0,37.8,82,30.09,10.0,Calm,Calm,-,N/A,,Drizzle,0,2012-10-08 05:35:00
1:55 AM,42.8,37.6,82,30.09,10.0,Calm,Calm,-,N/A,,Drizzle,0,2012-10-08 05:55:00
2:15 AM,42.8,36.3,78,30.09,10.0,Calm,Calm,-,N/A,,Light Drizzle,0,2012-10-08 06:15:00
2:35 AM,42.4,36.7,80,30.09,10.0,Calm,Calm,-,N/A,,Overcast,0,2012-10-08 06:35:00
2:55 AM,42.3,36.3,79,30.09,10.0,Calm,Calm,-,N/A,,Overcast,0,2012-10-08 06:55:00
3:15 AM,41.9,35.8,79,30.09,10.0,Calm,Calm,-,N/A,,Overcast,0,2012-10-08 07:15:00
3:35 AM,42.1,35.6,78,30.09,10.0,Calm,Calm,-,N/A,,Overcast,0,2012-10-08 07:35:00
3:55 AM,41.9,35.6,78,30.09,10.0,NW,3.5,-,N/A,,Overcast,320,2012-10-08 07:55:00
4:15 AM,42.1,35.6,78,30.10,10.0,Calm,Calm,-,N/A,,Overcast,0,2012-10-08 08:15:00
4:35 AM,42.4,35.6,77,30.09,10.0,Calm,Calm,-,N/A,,Overcast,0,2012-10-08 08:35:00
4:55 AM,41.4,35.8,81,30.10,10.0,Calm,Calm,-,N/A,,Overcast,0,2012-10-08 08:55:00
5:15 AM,40.6,35.6,82,30.11,10.0,Calm,Calm,-,N/A,,Overcast,0,2012-10-08 09:15:00
5:35 AM,41.2,36.3,83,30.11,10.0,Calm,Calm,-,N/A,,Overcast,0,2012-10-08 09:35:00
5:55 AM,41.7,36.7,82,30.12,10.0,Calm,Calm,-,N/A,,Overcast,0,2012-10-08 09:55:00
6:15 AM,41.7,36.7,82,30.12,10.0,Calm,Calm,-,N/A,,Overcast,0,2012-10-08 10:15:00
6:35 AM,41.5,36.7,83,30.13,10.0,Calm,Calm,-,N/A,,Overcast,0,2012-10-08 10:35:00
6:55 AM,42.1,37.2,83,30.14,10.0,Calm,Calm,-,N/A,,Overcast,0,2012-10-08 10:55:00
7:15 AM,42.3,37.6,83,30.15,10.0,Calm,Calm,-,N/A,,Light Drizzle,0,2012-10-08 11:15:00
7:35 AM,42.8,37.8,82,30.15,10.0,Calm,Calm,-,N/A,Rain,Light Rain,0,2012-10-08 11:35:00
7:55 AM,42.6,37.6,82,30.17,10.0,Calm,Calm,-,N/A,,Light Drizzle,0,2012-10-08 11:55:00
8:15 AM,42.8,37.9,83,30.18,10.0,Calm,Calm,-,N/A,Rain,Rain,0,2012-10-08 12:15:00
8:35 AM,43.3,38.1,82,30.19,10.0,Calm,Calm,-,N/A,Rain,Light Rain,0,2012-10-08 12:35:00
8:55 AM,43.7,37.4,78,30.19,10.0,Calm,Calm,-,N/A,,Drizzle,0,2012-10-08 12:55:00
9:15 AM,43.7,37.2,78,30.20,5.0,Calm,Calm,-,N/A,,Light Drizzle,0,2012-10-08 13:15:00
9:35 AM,44.1,36.1,74,30.21,10.0,Calm,Calm,-,N/A,,Overcast,0,2012-10-08 13:35:00
9:55 AM,44.8,37.2,75,30.21,10.0,NW,3.5,-,N/A,Rain,Light Rain,310,2012-10-08 13:55:00
10:15 AM,44.6,37.4,76,30.21,5.0,Calm,Calm,-,N/A,,Drizzle,0,2012-10-08 14:15:00
10:35 AM,45.0,36.7,73,30.22,10.0,West,3.5,-,N/A,,Mostly Cloudy,270,2012-10-08 14:35:00
10:55 AM,46.8,37.6,70,30.22,10.0,WNW,3.5,-,N/A,,Mostly Cloudy,290,2012-10-08 14:55:00
11:15 AM,45.9,34.9,66,30.22,10.0,WNW,4.6,-,N/A,,Mostly Cloudy,290,2012-10-08 15:15:00
11:35 AM,48.6,37.0,64,30.22,10.0,West,3.5,-,N/A,,Clear,260,2012-10-08 15:35:00
11:55 AM,48.9,35.8,61,30.23,10.0,West,4.6,-,N/A,,Scattered Clouds,280,2012-10-08 15:55:00
12:15 PM,48.7,32.7,54,30.23,10.0,West,3.5,-,N/A,,Mostly Cloudy,280,2012-10-08 16:15:00
12:35 PM,49.5,31.8,51,30.23,10.0,NNW,3.5,-,N/A,,Scattered Clouds,330,2012-10-08 16:35:00
12:55 PM,51.8,30.0,43,30.23,10.0,WSW,5.8,-,N/A,,Mostly Cloudy,250,2012-10-08 16:55:00
1:15 PM,51.8,28.2,40,30.22,10.0,WNW,4.6,-,N/A,,Mostly Cloudy,300,2012-10-08 17:15:00
1:35 PM,52.0,28.4,40,30.22,10.0,WSW,6.9,-,N/A,,Scattered Clouds,240,2012-10-08 17:35:00
1:55 PM,51.8,25.0,35,30.22,10.0,WSW,3.5,-,N/A,,Clear,240,2012-10-08 17:55:00
2:35 PM,53.4,26.2,35,30.22,10.0,NW,5.8,-,N/A,,Clear,310,2012-10-08 18:35:00
2:55 PM,53.2,23.0,31,30.22,10.0,Calm,Calm,-,N/A,,Clear,0,2012-10-08 18:55:00
3:15 PM,53.4,20.5,28,30.22,10.0,Calm,Calm,-,N/A,,Clear,0,2012-10-08 19:15:00
3:35 PM,53.4,21.2,28,30.22,10.0,WNW,5.8,-,N/A,,Clear,300,2012-10-08 19:35:00
3:55 PM,53.4,22.6,30,30.22,10.0,Calm,Calm,-,N/A,,Clear,0,2012-10-08 19:55:00
4:15 PM,53.4,18.9,26,30.22,10.0,Calm,Calm,-,N/A,,Clear,0,2012-10-08 20:15:00
4:35 PM,53.6,24.3,32,30.23,10.0,WSW,3.5,-,N/A,,Clear,250,2012-10-08 20:35:00
4:55 PM,53.2,19.2,26,30.23,10.0,Calm,Calm,-,N/A,,Clear,0,2012-10-08 20:55:00
5:15 PM,52.9,24.3,33,30.24,10.0,Calm,Calm,-,N/A,,Clear,0,2012-10-08 21:15:00
5:35 PM,52.7,21.0,29,30.24,10.0,Calm,Calm,-,N/A,,Clear,0,2012-10-08 21:35:00
5:55 PM,50.9,25.9,38,30.25,10.0,Calm,Calm,-,N/A,,Clear,0,2012-10-08 21:55:00
6:15 PM,46.6,31.6,56,30.25,10.0,Calm,Calm,-,N/A,,Clear,0,2012-10-08 22:15:00
6:35 PM,44.1,33.1,65,30.25,10.0,Calm,Calm,-,N/A,,Clear,0,2012-10-08 22:35:00
6:55 PM,42.8,33.1,69,30.25,10.0,SSE,3.5,-,N/A,,Clear,150,2012-10-08 22:55:00
7:15 PM,45.9,30.9,56,30.27,10.0,South,4.6,-,N/A,,Clear,180,2012-10-08 23:15:00
8:15 PM,44.6,32.5,63,30.28,10.0,SSW,4.6,-,N/A,,Clear,200,2012-10-09 00:15:00
8:35 PM,45.3,31.8,59,30.28,10.0,SSW,4.6,-,N/A,,Clear,200,2012-10-09 00:35:00
8:55 PM,44.1,32.7,64,30.29,10.0,SSW,4.6,-,N/A,,Clear,200,2012-10-09 00:55:00
9:15 PM,42.6,33.3,69,30.29,10.0,SSW,4.6,-,N/A,,Clear,210,2012-10-09 01:15:00
9:35 PM,43.0,32.2,66,30.29,10.0,SSW,5.8,-,N/A,,Clear,200,2012-10-09 01:35:00
10:15 PM,40.1,33.6,78,30.30,10.0,Calm,Calm,-,N/A,,Clear,0,2012-10-09 02:15:00
10:35 PM,40.6,33.3,75,30.30,10.0,SSW,3.5,-,N/A,,Clear,210,2012-10-09 02:35:00
10:55 PM,39.6,32.5,76,30.30,10.0,SSW,3.5,-,N/A,,Clear,200,2012-10-09 02:55:00
11:15 PM,37.6,32.0,80,30.31,10.0,Calm,Calm,-,N/A,,Clear,0,2012-10-09 03:15:00
11:55 PM,38.3,32.9,81,30.31,10.0,SW,3.5,-,N/A,,Clear,220,2012-10-09 03:55:00